Change the Weather History Date:

Saturday, October 27, 2012

  Actual Average Record
Temperature  
Mean Temperature 41 °F -  
Max Temperature 44 °F 47 °F 60 °F (2006)
Min Temperature 38 °F 32 °F 24 °F (1999)
Degree Days  
Heating Degree Days 24    
Moisture  
Dew Point 37 °F    
Average Humidity 85    
Maximum Humidity 93    
Minimum Humidity 73    
Precipitation  
Precipitation 0.08 in - - ()
Sea Level Pressure  
Sea Level Pressure 29.95 in    
Wind  
Wind Speed 7 mph ()    
Max Wind Speed 15 mph    
Max Gust Speed 20 mph    
Visibility 19.9 miles    
Events Rain    
Averages and records for this station are not official NWS values.
T = Trace of Precipitation, MM = Missing Value Source: Averaged Metar Reports

Daily Weather History Graph

Daily Weather History Graph

Search for Another Location

Airport or City:

Trip Planner

Search our weather history database for the weather conditions in past years. The results will help you decide how hot, cold, wet, or windy it might be!

Date:

Astronomy

Oct. 27, 2012 Rise Set
Actual Time 7:45 AM PDT 5:44 PM PDT
Civil Twilight 7:11 AM PDT 6:18 PM PDT
Nautical Twilight 6:33 AM PDT 6:57 PM PDT
Astronomical Twilight 5:55 AM PDT 7:35 PM PDT
Moon 4:39 PM PDT 5:37 AM PDT
Length of Visible Light 11h 06m
Length of Day
9h 58m
Waxing Gibbous, 96% of the Moon is Illuminated
Oct 27
Waxing Gibbous
Oct 29
Full
Nov 6
Last Quarter
Nov 13
New
Nov 20
First Quarter

Hourly Weather History & Observations

Time (PDT) Temp. Windchill Dew Point Humidity Pressure Visibility Wind Dir Wind Speed Gust Speed Precip Events Conditions
12:00 AM 39.2 °F 33.6 °F 35.6 °F 87% 30.05 in 40.0 mi SE 8.1 mph - N/A   Overcast
12:17 AM - - - N/A% - 40.0 mi SE 6.9 mph - N/A   Overcast
2:00 AM 39.2 °F 35.9 °F 35.6 °F 87% 30.05 in 40.0 mi ENE 4.6 mph - N/A   Overcast
3:00 AM 39.2 °F 35.0 °F 35.6 °F 87% 30.06 in 40.0 mi ESE 5.8 mph - N/A   Overcast
4:00 AM 39.2 °F 35.0 °F 35.6 °F 87% 30.05 in 40.0 mi East 5.8 mph - N/A   Overcast
4:34 AM - - - N/A% - 40.0 mi ESE 4.6 mph - N/A   Overcast
5:00 AM 39 °F - 35 °F 81% 30.06 in 37 mi ESE 4.6 mph - -   Overcast
5:00 AM 39.2 °F 35.9 °F 35.6 °F 87% 30.06 in 40.0 mi ESE 4.6 mph - N/A   Overcast
6:00 AM 39.2 °F 35.9 °F 35.6 °F 87% 30.06 in 40.0 mi East 4.6 mph - N/A   Overcast
7:00 AM 39.2 °F 35.0 °F 35.6 °F 87% 30.05 in 40.0 mi East 5.8 mph - N/A   Overcast
8:00 AM 39.2 °F 35.9 °F 35.6 °F 87% 30.04 in 40.0 mi ESE 4.6 mph - N/A   Overcast
9:00 AM 39.2 °F 35.0 °F 35.6 °F 87% 30.03 in 20.0 mi East 5.8 mph - N/A   Overcast
10:00 AM 39.2 °F 33.6 °F 35.6 °F 87% 30.01 in 20.0 mi East 8.1 mph - N/A   Overcast
11:00 AM 41 °F - 35 °F 73% 30.01 in 19 mi East 8.1 mph - -   Overcast
11:00 AM 41.0 °F 35.8 °F 35.6 °F 81% 30.01 in 20.0 mi East 8.1 mph - N/A   Overcast
12:00 PM 41.0 °F 35.8 °F 35.6 °F 81% 30.00 in 20.0 mi ESE 8.1 mph - N/A   Overcast
12:31 PM - - - N/A% - 20.0 mi East 5.8 mph - N/A Rain Light Rain Showers
1:00 PM 42.8 °F 38.6 °F 37.4 °F 81% 29.98 in 20.0 mi East 6.9 mph - N/A Rain Light Rain Showers
2:00 PM 44.6 °F 39.7 °F 37.4 °F 76% 29.94 in 30.0 mi East 9.2 mph - N/A Rain Light Rain Showers
2:08 PM - - - N/A% - 30.0 mi East 9.2 mph - N/A   Overcast
3:00 PM 42.8 °F 36.6 °F 37.4 °F 81% 29.91 in 30.0 mi ENE 11.5 mph - N/A   Overcast
4:00 PM 42.8 °F 35.8 °F 37.4 °F 81% 29.89 in 30.0 mi ENE 13.8 mph 19.6 mph N/A   Overcast
4:51 PM - - - N/A% - 30.0 mi East 12.7 mph - N/A Rain Light Rain Showers
5:00 PM 42 °F - 38 °F 80% 29.87 in 28 mi East 11.5 mph - - Rain Light Rain Showers
5:00 PM 42.8 °F 36.6 °F 37.4 °F 81% 29.87 in 30.0 mi East 11.5 mph - N/A Rain Light Rain Showers
6:00 PM 42.8 °F 37.0 °F 39.2 °F 87% 29.84 in 30.0 mi East 10.4 mph - N/A Rain Light Rain Showers
6:47 PM - - - N/A% - 30.0 mi East 12.7 mph 18.4 mph N/A   Overcast
7:00 PM 42.8 °F 35.4 °F 37.4 °F 81% 29.82 in 30.0 mi East 15.0 mph - N/A   Overcast
8:00 PM 41.0 °F 33.1 °F 37.4 °F 87% 29.81 in 30.0 mi East 15.0 mph - N/A   Mostly Cloudy
8:43 PM - - - N/A% - 30.0 mi ESE 12.7 mph - N/A Rain Light Rain Showers
9:00 PM 41.0 °F 33.9 °F 37.4 °F 87% 29.80 in 30.0 mi East 12.7 mph 18.4 mph N/A Rain Light Rain Showers
10:00 PM 41.0 °F 35.2 °F 39.2 °F 93% 29.81 in 30.0 mi East 9.2 mph - N/A Rain Light Rain Showers
11:00 PM 40 °F - 39 °F 93% 29.80 in 25 mi East 10.4 mph - - Rain Light Rain Showers
11:00 PM 41.0 °F 35.8 °F 39.2 °F 93% 29.80 in 25.0 mi East 8.1 mph - N/A Rain Light Rain Showers